Weather History for KFRG - August, 2014

Change the Weather History Date:

Tuesday, August 19, 2014

  Actual Average Record
Temperature  
Mean Temperature 68 °F -  
Max Temperature 77 °F 79 °F 91 °F (2002)
Min Temperature 60 °F 64 °F 59 °F (2007)
Cooling Degree Days 2    
Growing Degree Days 18 (Base 50)    
Moisture  
Dew Point 61 °F    
Average Humidity 76    
Maximum Humidity 93    
Minimum Humidity 64    
Precipitation  
Precipitation 0.00 in - - ()
Sea Level Pressure  
Sea Level Pressure 29.91 in    
Wind  
Wind Speed 7 mph (ESE)    
Max Wind Speed 13 mph    
Max Gust Speed 17 mph    
Visibility 10 miles    
Events      
Averages and records for this station are not official NWS values.
T = Trace of Precipitation, MM = Missing Value Source: NWS Daily Summary

Daily Weather History Graph

Daily Weather History Graph

Search for Another Location

Airport or City:

Trip Planner

Search our weather history database for the weather conditions in past years. The results will help you decide how hot, cold, wet, or windy it might be!

Date:

Astronomy

Aug. 19, 2014 Rise Set
Actual Time 6:07 AM EDT 7:45 PM EDT
Civil Twilight 5:38 AM EDT 8:14 PM EDT
Nautical Twilight 5:03 AM EDT 8:49 PM EDT
Astronomical Twilight 4:26 AM EDT 9:27 PM EDT
Moon 12:57 AM EDT (8/19) 3:40 PM EDT (8/19)
Length of Visible Light 14h 36m
Length of Day
13h 38m
Waning Crescent, 29% of the Moon is Illuminated
Aug 19
Waning Crescent
Aug 25
New
Sep 2
First Quarter
Sep 8
Full
Sep 15
Last Quarter

Hourly Weather History & Observations

Time (EDT) Temp. Dew Point Humidity Pressure Visibility Wind Dir Wind Speed Gust Speed Precip Events Conditions
12:53 AM 64.0 °F 62.1 °F 93% 29.88 in 10.0 mi ENE 6.9 mph - N/A   Clear
1:53 AM 64.0 °F 61.0 °F 90% 29.87 in 10.0 mi NE 4.6 mph - N/A   Clear
2:53 AM 64.9 °F 57.9 °F 78% 29.87 in 10.0 mi NE 6.9 mph - N/A   Overcast
3:53 AM 63.0 °F 55.9 °F 78% 29.87 in 10.0 mi NE 5.8 mph - N/A   Partly Cloudy
5:49 AM 60.8 °F 53.6 °F 77% 29.89 in 10.0 mi NNE 5.8 mph - N/A   Mostly Cloudy
5:53 AM 61.0 °F 54.0 °F 78% 29.89 in 10.0 mi NE 5.8 mph - N/A   Mostly Cloudy
6:11 AM 61.0 °F 53.1 °F 75% 29.89 in 10.0 mi NE 5.8 mph - N/A   Scattered Clouds
6:53 AM 63.0 °F 55.0 °F 75% 29.90 in 10.0 mi NNE 5.8 mph - N/A   Clear
7:53 AM 66.0 °F 57.9 °F 75% 29.90 in 10.0 mi ENE 6.9 mph - N/A   Clear
8:53 AM 69.1 °F 59.0 °F 70% 29.91 in 10.0 mi ENE 5.8 mph - N/A   Clear
9:53 AM 71.1 °F 60.1 °F 68% 29.92 in 10.0 mi ESE 9.2 mph - N/A   Scattered Clouds
10:53 AM 71.1 °F 62.1 °F 73% 29.93 in 10.0 mi SE 4.6 mph - N/A   Scattered Clouds
11:00 AM 72.0 °F 63.0 °F 73% 29.93 in 10.0 mi East 4.6 mph - N/A   Mostly Cloudy
11:53 AM 73.0 °F 62.1 °F 68% 29.94 in 10.0 mi South 4.6 mph - N/A   Mostly Cloudy
12:02 PM 72.0 °F 62.1 °F 71% 29.93 in 10.0 mi ESE 3.5 mph - N/A   Mostly Cloudy
12:53 PM 73.9 °F 63.0 °F 68% 29.92 in 10.0 mi Variable 6.9 mph - N/A   Clear
1:53 PM 75.9 °F 63.0 °F 64% 29.91 in 10.0 mi SSE 12.7 mph 17.3 mph N/A   Clear
2:53 PM 75.0 °F 64.9 °F 71% 29.91 in 10.0 mi SSE 12.7 mph - N/A   Mostly Cloudy
3:53 PM 75.9 °F 64.9 °F 69% 29.91 in 10.0 mi SSE 12.7 mph - N/A   Scattered Clouds
4:53 PM 75.0 °F 64.0 °F 69% 29.90 in 10.0 mi SE 10.4 mph - N/A   Partly Cloudy
5:53 PM 73.9 °F 63.0 °F 68% 29.90 in 10.0 mi South 10.4 mph - N/A   Scattered Clouds
7:53 PM 70.0 °F 64.0 °F 81% 29.92 in 10.0 mi SE 6.9 mph - N/A   Clear
8:53 PM 69.1 °F 64.0 °F 84% 29.93 in 10.0 mi SE 5.8 mph - N/A   Clear
9:53 PM 69.1 °F 64.0 °F 84% 29.94 in 10.0 mi SE 4.6 mph - N/A   Clear
10:53 PM 69.1 °F 64.9 °F 87% 29.94 in 10.0 mi SE 3.5 mph - N/A   Clear
11:53 PM 68.0 °F 64.0 °F 87% 29.95 in 10.0 mi Calm Calm - N/A   Clear